This is the latest recevied weather packets stored in our database for station/object K3PPP. If no packets are shown the sender has not sent any weather packets the latest 10 day(s).
| Time | Temp. | Humidity | Pressure | Rain* | Wind** | Luminosity | Snow |
|---|---|---|---|---|---|---|---|
| 1777654677 | 11.67° C | 49% | 1011.5 hPa | 0 mm | - | 863 W/m² | - |
| 1777654375 | 11.67° C | 50% | 1011.6 hPa | 0 mm | - | 715 W/m² | - |
| 1777654072 | 11.67° C | 52% | 1011.7 hPa | 0 mm | - | 448 W/m² | - |
| 1777653770 | 10.56° C | 57% | 1011.9 hPa | 0 mm | - | 458 W/m² | - |
| 1777653465 | 10.56° C | 58% | 1011.6 hPa | 0 mm | - | 464 W/m² | - |
| 1777653163 | 10.56° C | 62% | 1011.8 hPa | 0 mm | - | 333 W/m² | - |
| 1777652858 | 10.56° C | 60% | 1012.2 hPa | 0 mm | - | 327 W/m² | - |
| 1777652555 | 10° C | 61% | 1012.3 hPa | 0 mm | - | 344 W/m² | - |
| 1777652252 | 10.56° C | 61% | 1012.2 hPa | 0 mm | - | 352 W/m² | - |
| 1777651949 | 10° C | 61% | 1012.1 hPa | 0 mm | - | 434 W/m² | - |
| 1777651646 | 10° C | 61% | 1012.3 hPa | 0 mm | - | 297 W/m² | - |
| 1777651343 | 10° C | 61% | 1012.5 hPa | 0 mm | - | 316 W/m² | - |
| 1777651040 | 10° C | 63% | 1012.3 hPa | 0 mm | - | 350 W/m² | - |
| 1777650737 | 10.56° C | 61% | 1012.4 hPa | 0 mm | - | 484 W/m² | - |
| 1777650434 | 11.11° C | 61% | 1012.3 hPa | 0 mm | - | 589 W/m² | - |
| 1777650131 | 10.56° C | 60% | 1012.6 hPa | 0 mm | - | 690 W/m² | - |
| 1777649829 | 10.56° C | 56% | 1012.4 hPa | 0 mm | - | 727 W/m² | - |
| 1777649526 | 10° C | 56% | 1012.5 hPa | 0 mm | - | 516 W/m² | - |
| 1777649222 | 9.44° C | 60% | 1012.4 hPa | 0 mm | - | 541 W/m² | - |
| 1777648919 | 9.44° C | 58% | 1012.7 hPa | 0 mm | - | 559 W/m² | - |
| 1777648616 | 9.44° C | 61% | 1012.8 hPa | 0 mm | - | 374 W/m² | - |
| 1777648312 | 10° C | 61% | 1012.6 hPa | 0 mm | - | 332 W/m² | - |
| 1777648009 | 10° C | 56% | 1012.8 hPa | 0 mm | - | 455 W/m² | - |
| 1777647706 | 9.44° C | 58% | 1012.9 hPa | 0 mm | - | 511 W/m² | - |
| 1777647401 | 9.44° C | 59% | 1013.2 hPa | 0 mm | - | 364 W/m² | - |
* Rain latest hour (hover to see other rain measurements)
** Current wind speed in m/s (hover to see current wind gust speed)